Weather in Ierapetra

Greece     35°00′47″N   25°44′33″E
temp.,
°C
wind,
m/s
gust,
m/s
humid.,
%
clouds,
%
prec.,
mm/h
press.,
hPa
HPBL,
m
9 may, sun
sun900:00+20n33600 0.0 101132
03:00+19nne67720 0.0 1011151
06:00+18n813820 0.0 1012337
09:00+22n811535 0.0 1014378
12:00+24n812450 0.0 1015440
15:00+24n1115390 0.0 1015556
18:00+22n1215420 0.0 1015585
21:00+18n915550 0.0 1015463
10 may, mon
mon1000:00+17n913650 0.0 1015434
03:00+16n710710 0.0 1015365
06:00+15n68710 0.0 1015304
09:00+19n710530 0.0 1015507
12:00+21nne79470 0.0 1015437
15:00+21nne78470 0.0 1015446
18:00+20nne68500 0.0 1014443
21:00+16n78620 0.0 1015290
11 may, tue
tue1100:00+16n56580 0.0 1014206
03:00+15n56620 0.0 1013185
06:00+15n45615 0.0 1013177
09:00+18nne45550 0.0 1013433
12:00+21ne24500 0.0 1013442
15:00+21ne33490 0.0 1013458
18:00+20nne23540 0.0 1012378
21:00+17nne33640 0.0 1012137
12 may, wed
wed1200:00+16nne33580 0.0 1012113
03:00+16n22515 0.0 101193
06:00+16n224893 0.0 101192
09:00+19ene11370 0.0 1012218
12:00+20sse324521 0.0 1012344
15:00+20ssw44544 0.0 1012345
18:00+20sw45585 0.0 1011266
21:00+19sw45785 0.0 1011161
13 may, thu
thu1300:00+19sw56720 0.0 1011174
03:00+18wsw46650 0.0 1010146
06:00+18w34590 0.0 1010113
09:00+20wsw23540 0.0 1011203
12:00+22sw78620 0.0 1012433
15:00+22wsw46620 0.0 1012447
18:00+21wsw45660 0.0 1012318
21:00+18w23790 0.0 101395